Location: Alston School (historical)
(35.5076°N, 89.8251°W)
Time: 04:56:50
(UTC+00:00)

IRS-P3 - Pass Details

Date: 09 December 2025
Orbit: 810 x 816 km, 99.0° (Epoch: 16 January)

Event Time Altitude Azimuth Distance (km) Brightness Sun altitude
Rises 23:28:27 0° 148° (SSE) 3,324 7.2 -8.6°
Reaches altitude 10° 23:30:52 10° 142° (SE) 2,396 6.4 -9.0°
Maximum altitude 23:35:53 45° 71° (ENE) 1,095 4.4 -10.0°
Drops below altitude 10° 23:40:55 10° 0° (N) 2,406 6.4 -11.0°
Sets 23:43:21 0° 354° (N) 3,340 7.2 -11.4°
